When you browse on this site, cookies collect data to enhance your experience and personalize the content and advertising you see.
Visit our Privacy Policy to learn more. By continuing to use the site, you agree to this use of cookies and data.

Stündliche Wetter Kurcy

Heute, 14 Juli, Dienstag

Zeit Temperatur Niederschläge Wind Luftdruck Luftfeuchtigkeit
00:00 +17°C° 0 mm 2 m/S 742 mmHg 92%
01:00 +17°C° 0 mm 2 m/S 741 mmHg 92%
02:00 +17°C° 0 mm 3 m/S 741 mmHg 92%
03:00 +17°C° 0 mm 3 m/S 741 mmHg 90%
04:00 +17°C° 0.2 mm 3 m/S 741 mmHg 91%
05:00 +17°C° 0.2 mm 3 m/S 740 mmHg 93%
06:00 +17°C° 0.2 mm 3 m/S 740 mmHg 94%
07:00 +18°C° 0 mm 4 m/S 740 mmHg 93%
08:00 +19°C° 0 mm 6 m/S 739 mmHg 92%
09:00 +20°C° 0 mm 7 m/S 739 mmHg 90%
10:00 +20°C° 0 mm 7 m/S 739 mmHg 90%
11:00 +20°C° 0 mm 7 m/S 738 mmHg 89%
12:00 +20°C° 0 mm 7 m/S 738 mmHg 89%
13:00 +20°C° 0.9 mm 6 m/S 737 mmHg 91%
14:00 +21°C° 0.9 mm 6 m/S 736 mmHg 93%
15:00 +21°C° 0.9 mm 5 m/S 736 mmHg 95%
16:00 +21°C° 2 mm 5 m/S 735 mmHg 94%
17:00 +21°C° 2 mm 5 m/S 735 mmHg 92%
18:00 +21°C° 2 mm 5 m/S 734 mmHg 91%
19:00 +20°C° 0.1 mm 5 m/S 734 mmHg 92%
20:00 +20°C° 0.1 mm 5 m/S 734 mmHg 93%
21:00 +19°C° 0.1 mm 5 m/S 734 mmHg 94%
22:00 +17°C° 0 mm 6 m/S 734 mmHg 94%
23:00 +17°C° 0 mm 7 m/S 734 mmHg 94%

Morgen, 15 Juli, Mittwoch

Zeit Temperatur Niederschläge Wind Luftdruck Luftfeuchtigkeit
00:00 +16°C° 0 mm 8 m/S 734 mmHg 93%
01:00 +15°C° 0 mm 8 m/S 734 mmHg 93%
02:00 +15°C° 0 mm 8 m/S 735 mmHg 92%
03:00 +15°C° 0 mm 8 m/S 735 mmHg 92%
04:00 +15°C° 0 mm 7 m/S 735 mmHg 91%
05:00 +15°C° 0 mm 7 m/S 735 mmHg 90%
06:00 +15°C° 0 mm 7 m/S 735 mmHg 89%
07:00 +15°C° 0 mm 7 m/S 735 mmHg 88%
08:00 +15°C° 0 mm 8 m/S 735 mmHg 87%
09:00 +15°C° 0 mm 8 m/S 736 mmHg 87%
10:00 +15°C° 0.1 mm 8 m/S 736 mmHg 86%
11:00 +13°C° 0.1 mm 8 m/S 736 mmHg 85%
12:00 +13°C° 0.1 mm 8 m/S 736 mmHg 85%
13:00 +13°C° 0.1 mm 8 m/S 737 mmHg 84%
14:00 +12°C° 0.1 mm 9 m/S 737 mmHg 84%
15:00 +12°C° 0.1 mm 9 m/S 738 mmHg 83%
16:00 +12°C° 0.1 mm 9 m/S 738 mmHg 84%
17:00 +11°C° 0.1 mm 9 m/S 738 mmHg 86%
18:00 +11°C° 0.1 mm 9 m/S 738 mmHg 87%
19:00 +11°C° 0.1 mm 9 m/S 738 mmHg 88%
20:00 +11°C° 0.1 mm 8 m/S 738 mmHg 90%
21:00 +11°C° 0.1 mm 8 m/S 738 mmHg 91%
22:00 +11°C° 0.1 mm 8 m/S 738 mmHg 92%
23:00 +11°C° 0.1 mm 8 m/S 739 mmHg 93%

übermorgen, 16 Juli, Donnerstag

Zeit Temperatur Niederschläge Wind Luftdruck Luftfeuchtigkeit
00:00 +11°C° 0.1 mm 7 m/S 739 mmHg 94%
01:00 +11°C° 0 mm 7 m/S 739 mmHg 94%
02:00 +11°C° 0 mm 7 m/S 739 mmHg 93%
03:00 +11°C° 0 mm 7 m/S 739 mmHg 93%
04:00 +11°C° 0 mm 7 m/S 739 mmHg 93%
05:00 +11°C° 0 mm 6 m/S 740 mmHg 93%
06:00 +11°C° 0 mm 6 m/S 740 mmHg 93%
07:00 +11°C° 0 mm 6 m/S 740 mmHg 92%
08:00 +13°C° 0 mm 6 m/S 741 mmHg 91%
09:00 +13°C° 0 mm 6 m/S 741 mmHg 90%
10:00 +13°C° 0 mm 6 m/S 741 mmHg 89%
11:00 +14°C° 0 mm 6 m/S 741 mmHg 87%
12:00 +15°C° 0 mm 6 m/S 742 mmHg 85%
13:00 +15°C° 0 mm 5 m/S 742 mmHg 85%
14:00 +15°C° 0 mm 5 m/S 742 mmHg 84%
15:00 +15°C° 0 mm 5 m/S 743 mmHg 84%
16:00 +16°C° 0 mm 5 m/S 743 mmHg 84%
17:00 +17°C° 0 mm 4 m/S 743 mmHg 85%
18:00 +17°C° 0 mm 3 m/S 743 mmHg 85%
19:00 +16°C° 0 mm 3 m/S 743 mmHg 88%
20:00 +16°C° 0 mm 3 m/S 743 mmHg 90%
21:00 +15°C° 0 mm 2 m/S 743 mmHg 92%
22:00 +15°C° 0 mm 2 m/S 743 mmHg 93%
23:00 +13°C° 0 mm 3 m/S 743 mmHg 94%

17 Juli, Freitag

Zeit Temperatur Niederschläge Wind Luftdruck Luftfeuchtigkeit
00:00 +13°C° 0 mm 3 m/S 743 mmHg 95%
01:00 +13°C° 0 mm 3 m/S 743 mmHg 94%
02:00 +12°C° 0 mm 3 m/S 743 mmHg 94%
03:00 +12°C° 0 mm 3 m/S 743 mmHg 94%
04:00 +12°C° 0 mm 3 m/S 744 mmHg 94%
05:00 +12°C° 0 mm 3 m/S 744 mmHg 93%
06:00 +13°C° 0 mm 3 m/S 744 mmHg 93%
07:00 +14°C° 0 mm 3 m/S 744 mmHg 88%
08:00 +17°C° 0 mm 3 m/S 744 mmHg 83%
09:00 +19°C° 0 mm 3 m/S 744 mmHg 78%
10:00 +20°C° 0.1 mm 3 m/S 745 mmHg 74%
11:00 +21°C° 0.1 mm 4 m/S 745 mmHg 69%
12:00 +22°C° 0.1 mm 4 m/S 745 mmHg 65%
13:00 +22°C° 0.1 mm 4 m/S 745 mmHg 65%
14:00 +22°C° 0.1 mm 4 m/S 745 mmHg 66%
15:00 +22°C° 0.1 mm 4 m/S 745 mmHg 66%
16:00 +22°C° 0.1 mm 4 m/S 745 mmHg 69%
17:00 +22°C° 0.1 mm 3 m/S 745 mmHg 72%
18:00 +22°C° 0.1 mm 3 m/S 745 mmHg 74%
19:00 +20°C° 0.1 mm 3 m/S 745 mmHg 79%
20:00 +19°C° 0.1 mm 2 m/S 745 mmHg 83%
21:00 +18°C° 0.1 mm 2 m/S 746 mmHg 87%
22:00 +17°C° 0 mm 2 m/S 746 mmHg 88%
23:00 +16°C° 0 mm 2 m/S 746 mmHg 89%

18 Juli, Samstag

Zeit Temperatur Niederschläge Wind Luftdruck Luftfeuchtigkeit
00:00 +16°C° 0 mm 2 m/S 746 mmHg 90%
01:00 +15°C° 0 mm 2 m/S 746 mmHg 91%
02:00 +15°C° 0 mm 2 m/S 746 mmHg 91%
03:00 +14°C° 0 mm 2 m/S 746 mmHg 92%
04:00 +15°C° 0 mm 2 m/S 747 mmHg 93%
05:00 +15°C° 0 mm 2 m/S 747 mmHg 93%
06:00 +15°C° 0 mm 2 m/S 747 mmHg 93%
07:00 +16°C° 0 mm 2 m/S 747 mmHg 88%
08:00 +18°C° 0 mm 2 m/S 748 mmHg 84%
09:00 +19°C° 0 mm 2 m/S 748 mmHg 79%
10:00 +20°C° 0 mm 2 m/S 748 mmHg 76%
11:00 +21°C° 0 mm 2 m/S 748 mmHg 73%
12:00 +21°C° 0 mm 3 m/S 748 mmHg 70%
13:00 +22°C° 0 mm 3 m/S 748 mmHg 68%
14:00 +22°C° 0 mm 3 m/S 748 mmHg 65%
15:00 +24°C° 0 mm 3 m/S 748 mmHg 63%
16:00 +22°C° 0 mm 3 m/S 748 mmHg 66%
17:00 +22°C° 0 mm 3 m/S 748 mmHg 68%
18:00 +23°C° 0 mm 2 m/S 748 mmHg 71%
19:00 +21°C° 0 mm 2 m/S 748 mmHg 75%
20:00 +19°C° 0 mm 2 m/S 748 mmHg 80%
21:00 +17°C° 0 mm 2 m/S 748 mmHg 85%
22:00 +17°C° 0 mm 2 m/S 748 mmHg 87%
23:00 +16°C° 0 mm 2 m/S 749 mmHg 89%

19 Juli, Sonntag

Zeit Temperatur Niederschläge Wind Luftdruck Luftfeuchtigkeit
00:00 +16°C° 0 mm 2 m/S 749 mmHg 91%
01:00 +15°C° 0 mm 2 m/S 749 mmHg 92%
02:00 +15°C° 0 mm 2 m/S 749 mmHg 93%
03:00 +15°C° 0 mm 2 m/S 749 mmHg 93%
04:00 +15°C° 0 mm 2 m/S 749 mmHg 92%
05:00 +15°C° 0 mm 2 m/S 749 mmHg 91%
06:00 +15°C° 0 mm 2 m/S 749 mmHg 90%
07:00 +17°C° 0 mm 3 m/S 749 mmHg 85%
08:00 +18°C° 0 mm 3 m/S 748 mmHg 79%
09:00 +20°C° 0 mm 3 m/S 748 mmHg 73%
10:00 +21°C° 0 mm 3 m/S 748 mmHg 68%
11:00 +22°C° 0 mm 3 m/S 748 mmHg 63%
12:00 +22°C° 0 mm 4 m/S 748 mmHg 58%
13:00 +23°C° 0 mm 4 m/S 748 mmHg 58%
14:00 +23°C° 0 mm 4 m/S 747 mmHg 58%
15:00 +23°C° 0 mm 5 m/S 747 mmHg 58%
16:00 +23°C° 0 mm 4 m/S 747 mmHg 61%
17:00 +22°C° 0 mm 3 m/S 746 mmHg 64%
18:00 +23°C° 0 mm 2 m/S 746 mmHg 67%
19:00 +21°C° 0 mm 2 m/S 746 mmHg 70%
20:00 +19°C° 0 mm 2 m/S 746 mmHg 73%
21:00 +18°C° 0 mm 1 m/S 746 mmHg 76%
22:00 +17°C° 0 mm 2 m/S 745 mmHg 78%
23:00 +16°C° 0 mm 2 m/S 745 mmHg 80%
Mehr zeigen